Simultaneous Nadir Overpasses (SNOs) Predictions

Prediction of SNOs between AQUA and METOP-C Satellite Orbit:

Table of predicted SNOs for the next 14.0 days since TLE Epoch: 1/25/2020
Index Date (AQUA) Time (AQUA) Lat,Lon (AQUA) SZA (AQUA ) Date (METOP-C) Time (METOP-C) Lat,Lon (METOP-C) SZA (METOP-C ) Distance(km) Time Diff (sec)
1 01/26/2020 13:51:52 73.68, -33.46 92.51 01/26/2020 13:50:39 73.68, -33.49 92.53 1.13 73
2 01/26/2020 14:41:19 -73.75, 134.03 87.43 01/26/2020 14:41:20 -73.76, 134.01 87.42 1.23 1
3 01/26/2020 15:30:48 73.83, -58.51 92.66 01/26/2020 15:31:57 73.82, -58.50 92.64 1.03 69
4 01/29/2020 10:15:35 -73.74,-159.52 88.16 01/29/2020 10:15:09 -73.73,-159.49 88.16 1.54 26
5 01/29/2020 11:05:03 73.78, 8.03 91.88 01/29/2020 11:05:46 73.79, 7.99 91.89 1.73 43
6 02/01/2020 05:49:49 -73.69, -92.98 88.98 02/01/2020 05:48:57 -73.71, -92.99 88.95 1.96 52
7 02/01/2020 06:39:18 73.79, 74.45 91.12 02/01/2020 06:39:34 73.76, 74.48 91.09 3.22 16
8 02/01/2020 07:28:57 -74.46,-119.45 88.16 02/01/2020 07:30:03 -74.43,-116.53 88.32 87.30 66
9 02/04/2020 01:24:02 -73.54, -26.21 89.95 02/04/2020 01:22:50 -73.49, -26.95 89.96 24.06 72
10 02/04/2020 02:13:33 73.75, 140.97 90.27 02/04/2020 02:13:23 73.73, 140.97 90.26 1.91 10
11 02/04/2020 03:03:00 -73.80, -51.49 89.69 02/04/2020 03:04:04 -73.82, -51.51 89.68 2.67 64
12 02/06/2020 21:47:48 73.72,-152.52 89.39 02/06/2020 21:47:12 73.71,-152.54 89.39 1.35 36
13 02/06/2020 22:37:16 -73.81, 14.93 90.53 02/06/2020 22:37:53 -73.80, 14.99 90.55 2.44 37




NCC Satellite Simultaneous Nadir Overpasses (SNOs) Prediction Service
